Location: Newark
(45.2500°N, 7.5833°E)
Time: 06:33:00
(UTC+00:00)

BEESAT 2 - Pass Details

Date: 28 February 2020
Orbit: 494 x 533 km, 64.9° (Epoch: 07 April)

Event Time Altitude Azimuth Distance (km) Brightness Sun altitude
Rises 18:37:02 0° 327° (NNW) 2,688 ? -15.3°
Reaches altitude 10° 18:39:16 10° 332° (NNW) 1,794 ? -15.7°
Maximum altitude 18:43:14 55° 51° (NE) 647 ? -16.4°
Enters shadow 18:44:42 34° 112° (ESE) 896 ? -16.6°
